Time,TemperatureF,DewpointF,PressureIn,WindDirection,WindDirectionDegrees,WindSpeedMPH,WindSpeedGustMPH,Humidity,HourlyPrecipIn,Conditions,Clouds,dailyrainin,SolarRadiationWatts/m^2,SoftwareType,DateUTC
2013-07-04 00:02:00,75.0,44.0,-100.00,ESE,114,6.0,11.0,33,0.00,,,0.00,0.000000,,2013-07-04 07:02:00,
2013-07-04 00:34:00,75.0,44.0,-100.00,ESE,114,6.0,11.0,33,0.00,,,0.00,0.000000,,2013-07-04 07:34:00,
2013-07-04 00:43:00,75.0,44.0,-100.00,ESE,114,6.0,11.0,33,0.00,,,0.00,0.000000,,2013-07-04 07:43:00,
2013-07-04 00:52:00,75.0,44.0,-100.00,ESE,114,6.0,11.0,33,0.00,,,0.00,0.000000,,2013-07-04 07:52:00,
2013-07-04 01:02:00,74.0,45.0,-100.00,SE,143,3.0,10.0,36,0.00,,,0.00,0.000000,,2013-07-04 08:02:00,
2013-07-04 01:33:00,74.0,45.0,-100.00,SE,143,3.0,10.0,36,0.00,,,0.00,0.000000,,2013-07-04 08:33:00,
2013-07-04 01:42:00,74.0,45.0,-100.00,SE,143,3.0,10.0,36,0.00,,,0.00,0.000000,,2013-07-04 08:42:00,
2013-07-04 01:53:00,74.0,45.0,-100.00,SE,143,3.0,10.0,36,0.00,,,0.00,0.000000,,2013-07-04 08:53:00,
2013-07-04 02:22:00,71.0,44.0,-100.00,ESE,111,4.0,6.0,38,0.00,,,0.00,0.000000,,2013-07-04 09:22:00,
2013-07-04 02:33:00,71.0,44.0,-100.00,ESE,111,4.0,6.0,38,0.00,,,0.00,0.000000,,2013-07-04 09:33:00,
2013-07-04 02:42:00,71.0,44.0,-100.00,ESE,111,4.0,6.0,38,0.00,,,0.00,0.000000,,2013-07-04 09:42:00,
2013-07-04 02:52:00,71.0,44.0,-100.00,ESE,111,4.0,6.0,38,0.00,,,0.00,0.000000,,2013-07-04 09:52:00,
2013-07-04 03:01:00,71.0,44.0,-100.00,ESE,111,4.0,6.0,38,0.00,,,0.00,0.000000,,2013-07-04 10:01:00,
2013-07-04 03:02:00,70.0,46.0,-100.00,NE,53,3.0,6.0,42,0.00,,,0.00,0.000000,,2013-07-04 10:02:00,
2013-07-04 03:34:00,70.0,46.0,-100.00,NE,53,3.0,6.0,42,0.00,,,0.00,0.000000,,2013-07-04 10:34:00,
2013-07-04 03:43:00,70.0,46.0,-100.00,NE,53,3.0,6.0,42,0.00,,,0.00,0.000000,,2013-07-04 10:43:00,
2013-07-04 03:53:00,70.0,46.0,-100.00,NE,53,3.0,6.0,42,0.00,,,0.00,0.000000,,2013-07-04 10:53:00,
2013-07-04 04:22:00,69.0,45.0,-100.00,ENE,77,3.0,5.0,42,0.00,,,0.00,0.000000,,2013-07-04 11:22:00,
2013-07-04 04:34:00,69.0,45.0,-100.00,ENE,77,3.0,5.0,42,0.00,,,0.00,0.000000,,2013-07-04 11:34:00,
2013-07-04 04:43:00,69.0,45.0,-100.00,ENE,77,3.0,5.0,42,0.00,,,0.00,0.000000,,2013-07-04 11:43:00,
2013-07-04 04:53:00,69.0,45.0,-100.00,ENE,77,3.0,5.0,42,0.00,,,0.00,0.000000,,2013-07-04 11:53:00,
2013-07-04 05:01:00,69.0,45.0,-100.00,ENE,77,3.0,5.0,42,0.00,,,0.00,0.000000,,2013-07-04 12:01:00,
2013-07-04 05:33:00,70.0,43.0,-100.00,SE,136,2.0,4.0,38,0.00,,,0.00,0.000000,,2013-07-04 12:33:00,
2013-07-04 05:43:00,70.0,43.0,-100.00,SE,136,2.0,4.0,38,0.00,,,0.00,0.000000,,2013-07-04 12:43:00,
2013-07-04 05:52:00,70.0,43.0,-100.00,SE,136,2.0,4.0,38,0.00,,,0.00,0.000000,,2013-07-04 12:52:00,
2013-07-04 06:01:00,70.0,43.0,-100.00,SE,136,2.0,4.0,38,0.00,,,0.00,0.000000,,2013-07-04 13:01:00,
2013-07-04 06:02:00,72.0,44.0,-100.00,SE,135,3.0,4.0,36,0.00,,,0.00,6.000000,,2013-07-04 13:02:00,
2013-07-04 06:33:00,72.0,44.0,-100.00,SE,135,3.0,4.0,36,0.00,,,0.00,6.000000,,2013-07-04 13:33:00,
2013-07-04 06:43:00,72.0,44.0,-100.00,SE,135,3.0,4.0,36,0.00,,,0.00,6.000000,,2013-07-04 13:43:00,
2013-07-04 06:53:00,72.0,44.0,-100.00,SE,135,3.0,4.0,36,0.00,,,0.00,6.000000,,2013-07-04 13:53:00,
2013-07-04 07:33:00,76.0,46.0,-100.00,SE,137,3.0,5.0,35,0.00,,,0.00,77.000000,,2013-07-04 14:33:00,
2013-07-04 07:43:00,76.0,46.0,-100.00,SE,137,3.0,5.0,35,0.00,,,0.00,77.000000,,2013-07-04 14:43:00,
2013-07-04 07:53:00,76.0,46.0,-100.00,SE,137,3.0,5.0,35,0.00,,,0.00,77.000000,,2013-07-04 14:53:00,
2013-07-04 08:01:00,76.0,46.0,-100.00,SE,137,3.0,5.0,35,0.00,,,0.00,77.000000,,2013-07-04 15:01:00,
2013-07-04 08:43:00,85.0,46.0,-100.00,SSW,207,4.0,5.0,26,0.00,,,0.00,298.000000,,2013-07-04 15:43:00,
2013-07-04 08:52:00,85.0,46.0,-100.00,SSW,207,4.0,5.0,26,0.00,,,0.00,298.000000,,2013-07-04 15:52:00,
2013-07-04 09:01:00,85.0,46.0,-100.00,SSW,207,4.0,5.0,26,0.00,,,0.00,298.000000,,2013-07-04 16:01:00,
2013-07-04 09:33:00,87.0,46.0,-100.00,WSW,246,4.0,7.0,24,0.00,,,0.00,498.000000,,2013-07-04 16:33:00,
2013-07-04 09:43:00,87.0,46.0,-100.00,WSW,246,4.0,7.0,24,0.00,,,0.00,498.000000,,2013-07-04 16:43:00,
2013-07-04 09:52:00,87.0,46.0,-100.00,WSW,246,4.0,7.0,24,0.00,,,0.00,498.000000,,2013-07-04 16:52:00,
2013-07-04 10:01:00,87.0,46.0,-100.00,WSW,246,4.0,7.0,24,0.00,,,0.00,498.000000,,2013-07-04 17:01:00,
2013-07-04 10:22:00,89.0,46.0,-100.00,West,260,7.0,11.0,23,0.00,,,0.00,695.000000,,2013-07-04 17:22:00,
2013-07-04 10:34:00,89.0,46.0,-100.00,West,260,7.0,11.0,23,0.00,,,0.00,695.000000,,2013-07-04 17:34:00,
2013-07-04 10:43:00,89.0,46.0,-100.00,West,260,7.0,11.0,23,0.00,,,0.00,695.000000,,2013-07-04 17:43:00,
2013-07-04 10:53:00,89.0,46.0,-100.00,West,260,7.0,11.0,23,0.00,,,0.00,695.000000,,2013-07-04 17:53:00,
2013-07-04 11:01:00,89.0,46.0,-100.00,West,260,7.0,11.0,23,0.00,,,0.00,695.000000,,2013-07-04 18:01:00,
2013-07-04 11:33:00,91.0,47.0,-100.00,WSW,246,7.0,12.0,22,0.00,,,0.00,899.000000,,2013-07-04 18:33:00,
2013-07-04 11:43:00,91.0,47.0,-100.00,WSW,246,7.0,12.0,22,0.00,,,0.00,899.000000,,2013-07-04 18:43:00,
2013-07-04 11:52:00,91.0,47.0,-100.00,WSW,246,7.0,12.0,22,0.00,,,0.00,899.000000,,2013-07-04 18:52:00,
2013-07-04 12:01:00,91.0,47.0,-100.00,WSW,246,7.0,12.0,22,0.00,,,0.00,899.000000,,2013-07-04 19:01:00,
2013-07-04 12:34:00,91.0,47.0,-100.00,SE,130,9.0,14.0,22,0.00,,,0.00,1053.000000,,2013-07-04 19:34:00,
2013-07-04 12:43:00,91.0,47.0,-100.00,SE,130,9.0,14.0,22,0.00,,,0.00,1053.000000,,2013-07-04 19:43:00,
2013-07-04 12:53:00,91.0,47.0,-100.00,SE,130,9.0,14.0,22,0.00,,,0.00,1053.000000,,2013-07-04 19:53:00,
2013-07-04 13:01:00,91.0,47.0,-100.00,SE,130,9.0,14.0,22,0.00,,,0.00,1053.000000,,2013-07-04 20:01:00,
2013-07-04 13:34:00,89.0,46.0,-100.00,ESE,122,11.0,19.0,23,0.00,,,0.00,1027.000000,,2013-07-04 20:34:00,
2013-07-04 13:42:00,89.0,46.0,-100.00,ESE,122,11.0,19.0,23,0.00,,,0.00,1027.000000,,2013-07-04 20:42:00,
2013-07-04 13:53:00,89.0,46.0,-100.00,ESE,122,11.0,19.0,23,0.00,,,0.00,1027.000000,,2013-07-04 20:53:00,
2013-07-04 14:01:00,89.0,46.0,-100.00,ESE,122,11.0,19.0,23,0.00,,,0.00,1027.000000,,2013-07-04 21:01:00,
2013-07-04 14:22:00,89.0,50.0,-100.00,SE,129,10.0,19.0,26,0.00,,,0.00,1108.000000,,2013-07-04 21:22:00,
2013-07-04 14:32:00,89.0,50.0,-100.00,SE,129,10.0,19.0,26,0.00,,,0.00,1108.000000,,2013-07-04 21:32:00,
2013-07-04 14:43:00,89.0,50.0,-100.00,SE,129,10.0,19.0,26,0.00,,,0.00,1108.000000,,2013-07-04 21:43:00,
2013-07-04 14:53:00,89.0,50.0,-100.00,SE,129,10.0,19.0,26,0.00,,,0.00,1108.000000,,2013-07-04 21:53:00,
2013-07-04 15:01:00,89.0,50.0,-100.00,SE,129,10.0,19.0,26,0.00,,,0.00,1108.000000,,2013-07-04 22:01:00,
2013-07-04 15:22:00,86.0,49.0,-100.00,SE,145,12.0,19.0,28,0.00,,,0.00,1022.000000,,2013-07-04 22:22:00,
2013-07-04 15:33:00,86.0,49.0,-100.00,SE,145,12.0,19.0,28,0.00,,,0.00,1022.000000,,2013-07-04 22:33:00,
2013-07-04 15:43:00,86.0,49.0,-100.00,SE,145,12.0,19.0,28,0.00,,,0.00,1022.000000,,2013-07-04 22:43:00,
2013-07-04 15:52:00,86.0,49.0,-100.00,SE,145,12.0,19.0,28,0.00,,,0.00,1022.000000,,2013-07-04 22:52:00,
2013-07-04 16:01:00,86.0,49.0,-100.00,SE,145,12.0,19.0,28,0.00,,,0.00,1022.000000,,2013-07-04 23:01:00,
2013-07-04 16:23:00,86.0,48.0,-100.00,SSE,158,12.0,21.0,27,0.00,,,0.00,948.000000,,2013-07-04 23:23:00,
2013-07-04 16:33:00,86.0,48.0,-100.00,SSE,158,12.0,21.0,27,0.00,,,0.00,948.000000,,2013-07-04 23:33:00,
2013-07-04 16:43:00,86.0,48.0,-100.00,SSE,158,12.0,21.0,27,0.00,,,0.00,948.000000,,2013-07-04 23:43:00,
2013-07-04 16:52:00,86.0,48.0,-100.00,SSE,158,12.0,21.0,27,0.00,,,0.00,948.000000,,2013-07-04 23:52:00,
2013-07-04 17:01:00,86.0,48.0,-100.00,SSE,158,12.0,21.0,27,0.00,,,0.00,948.000000,,2013-07-05 00:01:00,
2013-07-04 17:32:00,84.0,48.0,-100.00,SSE,159,12.0,20.0,29,0.00,,,0.00,752.000000,,2013-07-05 00:32:00,
2013-07-04 17:43:00,84.0,48.0,-100.00,SSE,159,12.0,20.0,29,0.00,,,0.00,752.000000,,2013-07-05 00:43:00,
2013-07-04 17:52:00,84.0,48.0,-100.00,SSE,159,12.0,20.0,29,0.00,,,0.00,752.000000,,2013-07-05 00:52:00,
2013-07-04 18:01:00,84.0,48.0,-100.00,SSE,159,12.0,20.0,29,0.00,,,0.00,752.000000,,2013-07-05 01:01:00,
2013-07-04 18:02:00,81.0,50.0,-100.00,SE,138,11.0,22.0,34,0.00,,,0.00,538.000000,,2013-07-05 01:02:00,
2013-07-04 18:22:00,81.0,50.0,-100.00,SE,138,11.0,22.0,34,0.00,,,0.00,538.000000,,2013-07-05 01:22:00,
2013-07-04 18:32:00,81.0,50.0,-100.00,SE,138,11.0,22.0,34,0.00,,,0.00,538.000000,,2013-07-05 01:32:00,
2013-07-04 18:42:00,81.0,50.0,-100.00,SE,138,11.0,22.0,34,0.00,,,0.00,538.000000,,2013-07-05 01:42:00,
2013-07-04 18:52:00,81.0,50.0,-100.00,SE,138,11.0,22.0,34,0.00,,,0.00,538.000000,,2013-07-05 01:52:00,
2013-07-04 19:02:00,78.0,47.0,-100.00,SSE,148,12.0,22.0,33,0.00,,,0.00,315.000000,,2013-07-05 02:02:00,
2013-07-04 19:22:00,78.0,47.0,-100.00,SSE,148,12.0,22.0,33,0.00,,,0.00,315.000000,,2013-07-05 02:22:00,
2013-07-04 19:32:00,78.0,47.0,-100.00,SSE,148,12.0,22.0,33,0.00,,,0.00,315.000000,,2013-07-05 02:32:00,
2013-07-04 19:42:00,78.0,47.0,-100.00,SSE,148,12.0,22.0,33,0.00,,,0.00,315.000000,,2013-07-05 02:42:00,
2013-07-04 19:52:00,78.0,47.0,-100.00,SSE,148,12.0,22.0,33,0.00,,,0.00,315.000000,,2013-07-05 02:52:00,
2013-07-04 20:22:00,75.0,45.0,-100.00,SE,143,11.0,21.0,34,0.00,,,0.00,83.000000,,2013-07-05 03:22:00,
2013-07-04 20:33:00,75.0,45.0,-100.00,SE,143,11.0,21.0,34,0.00,,,0.00,83.000000,,2013-07-05 03:33:00,
2013-07-04 20:42:00,75.0,45.0,-100.00,SE,143,11.0,21.0,34,0.00,,,0.00,83.000000,,2013-07-05 03:42:00,
2013-07-04 20:52:00,75.0,45.0,-100.00,SE,143,11.0,21.0,34,0.00,,,0.00,83.000000,,2013-07-05 03:52:00,
2013-07-04 21:01:00,75.0,45.0,-100.00,SE,143,11.0,21.0,34,0.00,,,0.00,83.000000,,2013-07-05 04:01:00,
2013-07-04 21:22:00,74.0,41.0,-100.00,SE,136,12.0,21.0,31,0.00,,,0.00,2.000000,,2013-07-05 04:22:00,
2013-07-04 21:33:00,74.0,41.0,-100.00,SE,136,12.0,21.0,31,0.00,,,0.00,2.000000,,2013-07-05 04:33:00,
2013-07-04 21:43:00,74.0,41.0,-100.00,SE,136,12.0,21.0,31,0.00,,,0.00,2.000000,,2013-07-05 04:43:00,
2013-07-04 21:53:00,74.0,41.0,-100.00,SE,136,12.0,21.0,31,0.00,,,0.00,2.000000,,2013-07-05 04:53:00,
2013-07-04 22:01:00,74.0,41.0,-100.00,SE,136,12.0,21.0,31,0.00,,,0.00,2.000000,,2013-07-05 05:01:00,
2013-07-04 22:22:00,74.0,41.0,-100.00,SE,143,11.0,17.0,30,0.00,,,0.00,0.000000,,2013-07-05 05:22:00,
2013-07-04 22:33:00,74.0,41.0,-100.00,SE,143,11.0,17.0,30,0.00,,,0.00,0.000000,,2013-07-05 05:33:00,
2013-07-04 22:43:00,74.0,41.0,-100.00,SE,143,11.0,17.0,30,0.00,,,0.00,0.000000,,2013-07-05 05:43:00,
2013-07-04 22:52:00,74.0,41.0,-100.00,SE,143,11.0,17.0,30,0.00,,,0.00,0.000000,,2013-07-05 05:52:00,
2013-07-04 23:01:00,74.0,41.0,-100.00,SE,143,11.0,17.0,30,0.00,,,0.00,0.000000,,2013-07-05 06:01:00,
2013-07-04 23:02:00,73.0,43.0,-100.00,SE,140,9.0,15.0,34,0.00,,,0.00,0.000000,,2013-07-05 06:02:00,
2013-07-04 23:23:00,73.0,43.0,-100.00,SE,140,9.0,15.0,34,0.00,,,0.00,0.000000,,2013-07-05 06:23:00,
2013-07-04 23:34:00,73.0,43.0,-100.00,SE,140,9.0,15.0,34,0.00,,,0.00,0.000000,,2013-07-05 06:34:00,
2013-07-04 23:44:00,73.0,43.0,-100.00,SE,140,9.0,15.0,34,0.00,,,0.00,0.000000,,2013-07-05 06:44:00,
2013-07-04 23:53:00,73.0,43.0,-100.00,SE,140,9.0,15.0,34,0.00,,,0.00,0.000000,,2013-07-05 06:53:00,